Home   Weather   Post Falls   Past weeks

Flag for USA Past Weather in Post Falls, Idaho, USA — Yesterday and Last 2 Weeks

Now
46 °F

Clear.


Feels Like: 42 °F
Forecast: 42 / 57 °F
Wind: 7 mph from South

Location: Coeur d'Alene Weather Reporting System

Current Time: Apr 23, 2017 at 3:23:19 am

Latest Report: Apr 23, 2017 at 2:56 am


Visibility: 10 mi

Pressure: 29.91 "Hg (27.59 "Hg at 664m altitude)

Humidity: 77%

Dew Point: 39 °F

Location of Post FallsLocation

Past Weather in Post Falls — Graph

°F

Post Falls Temperature Yesterday

Maximum temperature yesterday: 65 °F (at 1:56 pm)
Minimum temperature yesterday: 37 °F (at 12:56 am)
Average temperature yesterday: 50 °F

High & Low Weather Summary for the Past Weeks

 TemperatureHumidityPressure
High65 °F (Apr 22, 1:56 pm)100% (Apr 11, 2:56 am)30.45 "Hg (Apr 11, 2:56 am)
Low25 °F (Apr 16, 3:56 am)27% (Apr 22, 12:56 pm)29.64 "Hg (Apr 13, 3:31 am)
Average43 °F76%30.06 "Hg
* Reported Apr 8 1:56 am — Apr 23 1:56 am, Post Falls, Weather by CustomWeather, © 2017

Note: Actual official high and low records may vary slightly from our data, if they occured in-between our weather recording intervals... More about our weather records

Advertising

Post Falls Weather History for the Previous 24 Hours

Scroll right to see more
 ConditionsComfort  
Time TempWeatherWind HumidityBarometerVisibility
1:56 am
Sun, Apr 23
46 °FPassing clouds.9 mph77%29.92 "Hg10 mi
12:56 am45 °FPassing clouds.6 mph80%29.93 "Hg10 mi
11:56 pm
Sat, Apr 22
45 °FPassing clouds.7 mph80%29.94 "Hg10 mi
9:56 pm52 °FPassing clouds.6 mph59%29.96 "Hg10 mi
8:56 pm52 °FPassing clouds.6 mph61%29.97 "Hg10 mi
7:56 pm52 °FOvercast.No wind72%29.98 "Hg10 mi
6:56 pm53 °FLight rain. Overcast.10 mph72%29.99 "Hg10 mi
6:25 pm55 °FLight rain. Overcast.12 mph67%29.91 "Hg10 mi
5:56 pm57 °FLight rain. Mostly cloudy.15 mph53%29.95 "Hg10 mi
4:56 pm61 °FPartly sunny.10 mph42%29.92 "Hg10 mi
3:56 pm64 °FPassing clouds.14 mph33%29.91 "Hg10 mi
2:56 pm65 °FScattered clouds.12 mph29%29.91 "Hg10 mi
1:56 pm65 °FSunny.9 mph27%29.92 "Hg10 mi
12:56 pm64 °FSunny.13 mph27%29.94 "Hg10 mi
10:56 am57 °FSunny.6 mph49%30.01 "Hg10 mi
9:56 am53 °FSunny.13 mph61%30.04 "Hg10 mi
8:56 am47 °FSunny.15 mph77%30.07 "Hg10 mi
7:56 am43 °FSunny.13 mph82%30.11 "Hg10 mi
6:56 am39 °FSunny.6 mph89%30.14 "Hg10 mi
5:56 am38 °FSunny.13 mph93%30.15 "Hg10 mi
4:56 am38 °FClear.14 mph90%30.17 "Hg10 mi
3:56 am38 °FClear.9 mph90%30.22 "Hg10 mi
Weather by CustomWeather, © 2017

See weather overviewHow to use our weather pages